Flag for Czech Republic Weather past 2 weeks in Plzen, Czech Republic

Now
71 °F

Mild.


Feels Like: 76 °F
Forecast: 57 / 70 °F
Wind: 1 mph from South

Location: Kocelovice

Current Time: Sep 1, 2015 at 4:56:22 AM

Latest Report: Sep 1, 2015 at 4:00 AM


Visibility: 13 mi

Pressure: 29.81 "Hg

Humidity: 57%

Dew point: 55 °F

Location of PlzenLocation

Historic Weather in Plzen — Graph

°F

Plzen temperature yesterday

Maximum temperature yesterday: 93 °F (at 2:00 PM)
Minimum temperature yesterday: 63 °F (at 7:00 AM)
Average temperature yesterday: 80 °F

Past Weeks' High & Low Weather Summary

 TemperatureHumidityPressure
High93 °F (Aug 31, 2:00 PM)100% (Aug 19, 4:00 AM)30.26 "Hg (Aug 19, 4:00 AM)
Low46 °F (Aug 26, 4:00 AM)20% (Aug 26, 5:00 PM)29.69 "Hg (Aug 24, 6:00 PM)
Average66 °F64%30.01 "Hg
* Reported Aug 17 2:00 AM — Sep 1 2:00 AM, Plzen, Weather by CustomWeather, © 2015

Note: Actual official high and low records may vary slightly from our data, if they occured in-between our weather recording intervals... More about our weather records

Advertising

Plzen weather history for previous 24 hours

 ConditionsComfort  
Time TempWeatherWind HumidityBarometerVisibility
2:00 AM
Tue, Sep 1
74 °FMild.2 mph50%29.80 "Hg12 mi
1:00 AM74 °FMild.1 mph50%29.81 "Hg12 mi
12:00 AM76 °FMild.N/A48%29.81 "Hg12 mi
10:00 PM
Mon, Aug 31
82 °FPassing clouds.N/A36%29.79 "Hg40 mi
9:00 PM84 °FPassing clouds.1 mph34%29.78 "Hg40 mi
8:00 PM86 °FPassing clouds.3 mph34%29.77 "Hg43 mi
7:00 PM88 °FPartly sunny.2 mph32%29.76 "Hg43 mi
6:00 PM91 °FScattered clouds.5 mph29%29.76 "Hg40 mi
5:00 PM93 °FScattered clouds.N/A27%29.77 "Hg40 mi
4:00 PM92 °FScattered clouds.N/A28%29.79 "Hg37 mi
3:00 PM93 °FScattered clouds.N/A25%29.81 "Hg34 mi
2:00 PM93 °FScattered clouds.3 mph27%29.82 "Hg31 mi
1:00 PM88 °FPassing clouds.3 mph37%29.85 "Hg25 mi
12:00 PM87 °FPassing clouds.3 mph41%29.88 "Hg16 mi
11:00 AM82 °FPassing clouds.N/A44%29.90 "Hg16 mi
10:00 AM79 °FPassing clouds.N/A52%29.92 "Hg15 mi
9:00 AM74 °FPassing clouds.N/A60%29.96 "Hg15 mi
8:00 AM70 °FSunny.N/A71%29.97 "Hg14 mi
7:00 AM63 °FMild.2 mph89%29.99 "Hg11 mi
6:00 AM65 °FMild.1 mph82%29.98 "Hg12 mi
5:00 AM67 °FMild.1 mph77%29.97 "Hg12 mi
4:00 AM66 °FMild.2 mph80%29.99 "Hg12 mi
Weather by CustomWeather, © 2015

See weather overviewHow to use our weather pages